Tracking 29892 objects as of 21-Nov-2024
HD Live streaming from Space Station
objects crossing your sky now

STARLINK-31335

Track STARLINK-31335 now!
10-day predictions
STARLINK-31335 is classified as:


NORAD ID: 58969
Int'l Code: 2024-031E
Perigee: 478.2 km
Apogee: 481.3 km
Inclination: 53.2 °
Period: 94.1 minutes
Semi major axis: 6850 km
RCS: Unknown
Launch date: February 15, 2023
Source: United States (US)
Launch site: AIR FORCE WESTERN TEST RANGE (AFWTR)
Your satellite tracking list
Your tracking list is empty




NASA's NSSDC Master Catalog

Two Line Element Set (TLE):
1 58969U 24031E   24325.42291536  .00045457  00000-0  14962-2 0  9994
2 58969  53.1584 339.4165 0002270  84.6577 275.4683 15.31079918 43921
Source of the keplerian elements: AFSPC